Location: Zagreb
(45.8000°N, 16.0000°E)
Time: 02:23:31
(UTC+02:00)

Transit 2A Rocket - Pass Details

Date: 01 February 2022
Orbit: 592 x 909 km, 66.7° (Epoch: 26 May)

Event Time Altitude Azimuth Distance (km) Brightness Sun altitude
Rises 01:25:24 0° 328° (NNW) 3,442 - -57.3°
Reaches altitude 10° 01:28:00 10° 332° (NNW) 2,461 - -57.0°
Maximum altitude 01:33:38 63° 53° (NE) 881 - -56.4°
Drops below altitude 10° 01:38:43 10° 134° (SE) 2,236 - -55.9°
Sets 01:41:00 0° 138° (SE) 3,104 - -55.6°
